Regional Weather Roundup
Issued by NWS Sioux Falls, SD

Home | Current Version | Previous Version | Text Only | Print | Product List | Glossary On
Versions: 1 2 3 4 5 6 7 8 9 10 11 12 13 14 15 16 17 18 19 20 21 22 23 24 25 26 27 28 29 30 31 32 33 34 35 36 37 38 39 40 41 42 43 44 45 46 47 48 49 50
000
ASUS43 KFSD 270902
RWRFSD

WEATHER ROUNDUP FOR SE SOUTH DAKOTA/SW MINNESOTA/NW IOWA
NATIONAL WEATHER SERVICE SIOUX FALLS SD
300 AM CST FRI FEB 27 2015

NOTE: "FAIR" INDICATES FEW OR NO CLOUDS BELOW 12,000 FEET WITH NO
SIGNIFICANT WEATHER AND OR OBSTRUCTIONS TO VISIBILITY.


SDZ038>040-050-052>070-271000-
SOUTHEAST SOUTH DAKOTA

CITY           SKY/WX    TMP DP  RH WIND       PRES   REMARKS
CHAMBERLAIN    NOT AVBL
HURON          PTCLDY   -11 -16  78 W3        30.54S
MADISON        FAIR      -9 -11  92 W7        30.48F WCI -24
MITCHELL       CLEAR     -4 -10  75 SW5       30.56F WCI -15
SIOUX FALLS    CLEAR     -8 -14  74 CALM      30.52F
WINNER         FAIR       1  -9  62 SW7       30.47F WCI -12
YANKTON        CLEAR     -2  -2 100 W7        30.57F WCI -16
$$

MNZ071-072-080-081-089-090-097-098-271000-
SOUTHWEST MINNESOTA

CITY           SKY/WX    TMP DP  RH WIND       PRES   REMARKS
FAIRMONT       CLEAR     -8 -13  77 NW8       30.49S WCI -23
JACKSON        CLEAR     -9 -17  70 W7        30.49S WCI -24
LUVERNE        CLEAR     -8 -13  77 CALM      30.53S
MARSHALL       CLEAR     -8 -17  65 W8        30.52S WCI -23
MONTEVIDEO     CLEAR     -8 -13  77 NW6       30.53F WCI -21
PIPESTONE      PTCLDY   -11 -15  84 CALM      30.47F
REDWOOD FALLS  CLEAR     -8 -14  74 W8        30.53S WCI -24
TRACY          CLEAR     -6 -12  75 W7        30.51S WCI -21
WINDOM         CLEAR    -15 -18  84 CALM      30.49F
WORTHINGTON    CLEAR     19 -22  15 W8        30.51R WCI   9
$$

IAZ001>003-012>014-020>022-031-032-NEZ013-014-SDZ071-271000-
NORTHWEST IOWA

CITY           SKY/WX    TMP DP  RH WIND       PRES   REMARKS
DENISON        CLEAR    -13 -18  77 CALM      30.55R
ESTHERVILLE    CLEAR    -13 -17  82 NW9       30.51R WCI -31
SIOUX CITY     CLEAR     -4  -9  79 W3        30.59S
SPENCER        CLEAR    -14 -20  74 W7        30.52F WCI -30
$$

ABBREVIATIONS USED IN REMARKS
   TC - TEMPERATURE IN CELSIUS
  WCI - WIND CHILL INDEX
   HX - HEAT INDEX
  VSB - VISIBILITY




USA.gov is the U.S. government's official web portal to all federal, state and local government web resources and services.